HAZ6331 ZGGG-ZSAM

Flight info

Callsign HAZ6331
Flight time 0h 43m
Altitude 25600
Route LMN G471 XEBUL DCT NUVGA DCT VETIB W155 TEBON
Aircraft A20N/M-SD1T1E2E3FGILRWXY/LB1D1

Departure

Time 2026-05-05 08:46
Airport Guangzhou Baiyun International Airport (ZGGG)

Arrival

Time 2026-05-05 09:30
Airport Xiamen Gaoqi International Airport (ZSAM)
Time Latitude Longitude Altitude Speed Heading
2026-05-05 08:22 23.37399 113.32028 51 ft 0 kts 284°
2026-05-05 08:33 23.37398 113.32032 51 ft 2 kts 284°
2026-05-05 08:33 23.37394 113.32047 51 ft 2 kts 284°
2026-05-05 08:33 23.37391 113.32063 51 ft 2 kts 284°
2026-05-05 08:33 23.37387 113.32079 51 ft 2 kts 284°
2026-05-05 08:34 23.37380 113.32093 51 ft 2 kts 327°
2026-05-05 08:34 23.37365 113.32098 51 ft 1 kts
2026-05-05 08:34 23.37358 113.32096 51 ft 1 kts 19°
2026-05-05 08:34 23.37355 113.32095 51 ft 0 kts 15°
2026-05-05 08:40 23.37357 113.32095 51 ft 0 kts 17°
2026-05-05 08:40 23.37370 113.32101 51 ft 3 kts 28°
2026-05-05 08:40 23.37386 113.32134 51 ft 6 kts 79°
2026-05-05 08:41 23.37377 113.32198 51 ft 10 kts 111°
2026-05-05 08:41 23.37313 113.32237 51 ft 12 kts 190°
2026-05-05 08:41 23.37217 113.32210 51 ft 15 kts 194°
2026-05-05 08:41 23.37099 113.32178 51 ft 18 kts 193°
2026-05-05 08:42 23.36966 113.32144 51 ft 20 kts 194°
2026-05-05 08:42 23.36824 113.32104 51 ft 21 kts 194°
2026-05-05 08:42 23.36675 113.32064 51 ft 21 kts 193°
2026-05-05 08:42 23.36534 113.32025 51 ft 19 kts 196°
2026-05-05 08:43 23.36399 113.31989 51 ft 19 kts 190°
2026-05-05 08:43 23.36263 113.31953 51 ft 20 kts 193°
2026-05-05 08:43 23.36126 113.31915 51 ft 20 kts 194°
2026-05-05 08:43 23.35988 113.31879 51 ft 20 kts 194°
2026-05-05 08:44 23.35845 113.31840 51 ft 21 kts 194°
2026-05-05 08:44 23.35706 113.31804 51 ft 20 kts 193°
2026-05-05 08:44 23.35568 113.31767 51 ft 20 kts 186°
2026-05-05 08:44 23.35506 113.31849 51 ft 15 kts 103°
2026-05-05 08:45 23.35551 113.31932 51 ft 15 kts 18°
2026-05-05 08:45 23.35627 113.31956 51 ft 23 kts 14°
2026-05-05 08:45 23.36070 113.32072 51 ft 103 kts 14°
2026-05-05 08:45 23.36978 113.32322 77 ft 160 kts 15°
2026-05-05 08:46 23.38106 113.32655 575 ft 171 kts 15°
2026-05-05 08:46 23.39323 113.32968 1037 ft 190 kts
2026-05-05 08:46 23.40707 113.33092 1552 ft 207 kts
2026-05-05 08:46 23.42073 113.33663 2201 ft 214 kts 40°
2026-05-05 08:47 23.43085 113.34822 3022 ft 214 kts 50°
2026-05-05 08:47 23.44066 113.36095 3605 ft 226 kts 50°
2026-05-05 08:47 23.45149 113.37444 4031 ft 247 kts 48°
2026-05-05 08:47 23.46359 113.38877 4527 ft 268 kts 47°
2026-05-05 08:48 23.47685 113.40398 5021 ft 288 kts 46°
2026-05-05 08:48 23.49125 113.42027 5513 ft 308 kts 46°
2026-05-05 08:48 23.50483 113.43877 5994 ft 318 kts 59°
2026-05-05 08:48 23.51400 113.46146 6494 ft 334 kts 73°
2026-05-05 08:49 23.52020 113.48636 6980 ft 347 kts 76°
2026-05-05 08:49 23.52607 113.51213 7467 ft 352 kts 76°
2026-05-05 08:49 23.53211 113.53824 7955 ft 356 kts 76°
2026-05-05 08:49 23.53826 113.56443 8437 ft 360 kts 76°
2026-05-05 08:50 23.54433 113.59090 8917 ft 364 kts 76°
2026-05-05 08:50 23.55048 113.61776 9402 ft 367 kts 75°
2026-05-05 08:50 23.55679 113.64526 9891 ft 371 kts 75°
2026-05-05 08:50 23.56299 113.67265 10371 ft 374 kts 77°
2026-05-05 08:51 23.56792 113.70052 10849 ft 378 kts 81°
2026-05-05 08:51 23.57168 113.72887 11329 ft 382 kts 82°
2026-05-05 08:51 23.57531 113.75777 11808 ft 386 kts 82°
2026-05-05 08:51 23.57896 113.78686 12284 ft 392 kts 82°
2026-05-05 08:52 23.58270 113.81663 12760 ft 401 kts 82°
2026-05-05 08:52 23.58656 113.84717 13238 ft 408 kts 81°
2026-05-05 08:52 23.59047 113.87798 13714 ft 416 kts 81°
2026-05-05 08:52 23.59446 113.90931 14175 ft 423 kts 81°
2026-05-05 08:53 23.59860 113.94179 14485 ft 433 kts 81°
2026-05-05 08:53 23.60273 113.97428 14792 ft 438 kts 81°
2026-05-05 08:53 23.60693 114.00728 15100 ft 440 kts 81°
2026-05-05 08:53 23.61112 114.04039 15407 ft 443 kts 81°
2026-05-05 08:54 23.61536 114.07403 15716 ft 447 kts 81°
2026-05-05 08:54 23.61962 114.10789 16023 ft 449 kts 81°
2026-05-05 08:54 23.62392 114.14159 16328 ft 452 kts 81°
2026-05-05 08:54 23.62833 114.17539 16631 ft 455 kts 81°
2026-05-05 08:55 23.63284 114.20984 16937 ft 457 kts 81°
2026-05-05 08:55 23.63730 114.24406 17239 ft 459 kts 81°
2026-05-05 08:55 23.64183 114.27877 17543 ft 462 kts 80°
2026-05-05 08:55 23.64995 114.31247 17827 ft 460 kts 64°
2026-05-05 08:56 23.66701 114.34190 18134 ft 454 kts 44°
2026-05-05 08:56 23.69033 114.36428 18450 ft 449 kts 32°
2026-05-05 08:56 23.71559 114.38447 18754 ft 451 kts 31°
2026-05-05 08:56 23.74124 114.40472 19063 ft 453 kts 31°
2026-05-05 08:57 23.76680 114.42511 19368 ft 455 kts 31°
2026-05-05 08:57 23.79226 114.44564 19672 ft 457 kts 31°
2026-05-05 08:57 23.81778 114.46639 19974 ft 459 kts 32°
2026-05-05 08:57 23.84171 114.49025 20253 ft 473 kts 47°
2026-05-05 08:58 23.85771 114.52179 20552 ft 487 kts 68°
2026-05-05 08:58 23.86434 114.55846 20867 ft 495 kts 83°
2026-05-05 08:58 23.86642 114.59628 21170 ft 501 kts 86°
2026-05-05 08:58 23.86792 114.63445 21468 ft 505 kts 86°
2026-05-05 08:59 23.87003 114.67305 21765 ft 509 kts 85°
2026-05-05 08:59 23.87283 114.71167 22062 ft 512 kts 84°
2026-05-05 08:59 23.87620 114.75060 22361 ft 515 kts 83°
2026-05-05 08:59 23.87998 114.79005 22543 ft 522 kts 83°
2026-05-05 09:00 23.88393 114.82964 22550 ft 531 kts 82°
2026-05-05 09:00 23.88801 114.86971 22551 ft 536 kts 82°
2026-05-05 09:00 23.89221 114.91052 22552 ft 537 kts 82°
2026-05-05 09:00 23.89637 114.95093 22555 ft 538 kts 82°
2026-05-05 09:01 23.90051 114.99122 22555 ft 538 kts 82°
2026-05-05 09:01 23.90470 115.03204 22555 ft 538 kts 82°
2026-05-05 09:01 23.90883 115.07243 22559 ft 538 kts 82°
2026-05-05 09:01 23.91300 115.11325 22561 ft 538 kts 82°
2026-05-05 09:02 23.91712 115.15369 22562 ft 538 kts 82°
2026-05-05 09:02 23.92128 115.19474 22564 ft 539 kts 82°
2026-05-05 09:02 23.92535 115.23498 22564 ft 539 kts 82°
2026-05-05 09:02 23.92948 115.27585 22568 ft 540 kts 83°
2026-05-05 09:03 23.93358 115.31646 22567 ft 540 kts 83°
2026-05-05 09:03 23.93769 115.35744 22568 ft 540 kts 83°
2026-05-05 09:03 23.94172 115.39785 22566 ft 541 kts 83°
2026-05-05 09:03 23.94583 115.43906 22567 ft 541 kts 83°
2026-05-05 09:04 23.94988 115.47968 22568 ft 542 kts 83°
2026-05-05 09:04 23.95397 115.52083 22567 ft 542 kts 83°
2026-05-05 09:04 23.95801 115.56155 22566 ft 542 kts 83°
2026-05-05 09:04 23.96205 115.60234 22567 ft 542 kts 83°
2026-05-05 09:05 23.96608 115.64329 22563 ft 542 kts 83°
2026-05-05 09:05 23.97008 115.68413 22558 ft 542 kts 83°
2026-05-05 09:05 23.97412 115.72553 22558 ft 542 kts 83°
2026-05-05 09:05 23.97804 115.76590 22490 ft 542 kts 83°
2026-05-05 09:06 23.98205 115.80725 22187 ft 538 kts 84°
2026-05-05 09:06 23.98594 115.84727 21898 ft 536 kts 84°
2026-05-05 09:06 23.98989 115.88809 21601 ft 533 kts 84°
2026-05-05 09:06 23.99376 115.92813 21305 ft 530 kts 84°
2026-05-05 09:07 23.99761 115.96811 21009 ft 527 kts 84°
2026-05-05 09:07 24.00141 116.00757 20715 ft 525 kts 84°
2026-05-05 09:07 24.00523 116.04736 20425 ft 522 kts 84°
2026-05-05 09:07 24.00899 116.08653 20130 ft 520 kts 84°
2026-05-05 09:08 24.01273 116.12582 19830 ft 517 kts 84°
2026-05-05 09:08 24.01644 116.16484 19530 ft 514 kts 84°
2026-05-05 09:08 24.02010 116.20342 19232 ft 511 kts 84°
2026-05-05 09:08 24.02371 116.24169 18935 ft 507 kts 84°
2026-05-05 09:09 24.02736 116.28032 18632 ft 504 kts 84°
2026-05-05 09:09 24.03092 116.31827 18330 ft 502 kts 84°
2026-05-05 09:09 24.03447 116.35610 18028 ft 499 kts 84°
2026-05-05 09:09 24.03799 116.39362 17725 ft 497 kts 84°
2026-05-05 09:10 24.04150 116.43115 17424 ft 494 kts 84°
2026-05-05 09:10 24.04497 116.46841 17115 ft 492 kts 84°
2026-05-05 09:10 24.04841 116.50543 16813 ft 489 kts 85°
2026-05-05 09:10 24.05183 116.54237 16510 ft 487 kts 85°
2026-05-05 09:11 24.05525 116.57947 16203 ft 484 kts 85°
2026-05-05 09:11 24.05859 116.61562 15903 ft 482 kts 85°
2026-05-05 09:11 24.06194 116.65221 15597 ft 479 kts 85°
2026-05-05 09:11 24.06526 116.68852 15289 ft 477 kts 85°
2026-05-05 09:12 24.06855 116.72459 14981 ft 475 kts 85°
2026-05-05 09:12 24.07179 116.76031 14677 ft 472 kts 85°
2026-05-05 09:12 24.07503 116.79591 14363 ft 469 kts 85°
2026-05-05 09:12 24.07823 116.83122 14058 ft 466 kts 85°
2026-05-05 09:13 24.08144 116.86671 13738 ft 463 kts 85°
2026-05-05 09:13 24.08460 116.90187 13424 ft 461 kts 85°
2026-05-05 09:13 24.08773 116.93667 13111 ft 458 kts 86°
2026-05-05 09:13 24.09084 116.97128 12811 ft 456 kts 85°
2026-05-05 09:14 24.09390 117.00546 12499 ft 454 kts 85°
2026-05-05 09:14 24.09698 117.03995 12193 ft 452 kts 85°
2026-05-05 09:14 24.10006 117.07449 11882 ft 450 kts 85°
2026-05-05 09:14 24.10316 117.10830 11583 ft 449 kts 85°
2026-05-05 09:15 24.10632 117.14216 11277 ft 446 kts 85°
2026-05-05 09:15 24.10940 117.17578 10972 ft 445 kts 85°
2026-05-05 09:15 24.11246 117.20961 10661 ft 443 kts 85°
2026-05-05 09:15 24.11541 117.24288 10357 ft 441 kts 85°
2026-05-05 09:16 24.11833 117.27609 10058 ft 439 kts 85°
2026-05-05 09:16 24.12123 117.30913 9751 ft 436 kts 85°
2026-05-05 09:16 24.12412 117.34216 9452 ft 434 kts 84°
2026-05-05 09:16 24.12696 117.37490 9136 ft 430 kts 84°
2026-05-05 09:17 24.12981 117.40750 8826 ft 427 kts 84°
2026-05-05 09:17 24.13259 117.43958 8513 ft 423 kts 84°
2026-05-05 09:17 24.13534 117.47131 8193 ft 420 kts 84°
2026-05-05 09:17 24.14005 117.50243 7854 ft 409 kts 70°
2026-05-05 09:18 24.15376 117.52901 7526 ft 391 kts 48°
2026-05-05 09:18 24.17228 117.55009 7211 ft 377 kts 41°
2026-05-05 09:18 24.19092 117.56955 6885 ft 366 kts 41°
2026-05-05 09:18 24.20888 117.58881 6563 ft 356 kts 43°
2026-05-05 09:19 24.22613 117.60809 6239 ft 346 kts 44°
2026-05-05 09:19 24.24245 117.62694 5917 ft 337 kts 45°
2026-05-05 09:19 24.25837 117.64564 5593 ft 329 kts 46°
2026-05-05 09:19 24.27364 117.66385 5269 ft 321 kts 46°
2026-05-05 09:20 24.28848 117.68173 4926 ft 306 kts 47°
2026-05-05 09:20 24.30227 117.69836 4633 ft 288 kts 47°
2026-05-05 09:20 24.31401 117.71249 4451 ft 277 kts 47°
2026-05-05 09:20 24.32625 117.72719 4304 ft 266 kts 47°
2026-05-05 09:21 24.33847 117.74185 4155 ft 256 kts 47°
2026-05-05 09:21 24.34950 117.75699 3986 ft 247 kts 62°
2026-05-05 09:21 24.35568 117.77420 3845 ft 238 kts 72°
2026-05-05 09:21 24.36040 117.79120 3700 ft 230 kts 72°
2026-05-05 09:22 24.36509 117.80767 3550 ft 222 kts 71°
2026-05-05 09:22 24.36989 117.82346 3397 ft 214 kts 71°
2026-05-05 09:22 24.37473 117.83872 3245 ft 207 kts 70°
2026-05-05 09:22 24.37951 117.85337 3088 ft 200 kts 70°
2026-05-05 09:23 24.38416 117.86750 3021 ft 194 kts 70°
2026-05-05 09:23 24.38869 117.88118 2994 ft 183 kts 69°
2026-05-05 09:23 24.39285 117.89370 3002 ft 166 kts 69°
2026-05-05 09:23 24.39686 117.90585 3059 ft 173 kts 70°
2026-05-05 09:24 24.40074 117.91845 3033 ft 174 kts 69°
2026-05-05 09:24 24.40568 117.93070 3017 ft 175 kts 61°
2026-05-05 09:24 24.41206 117.94211 3014 ft 174 kts 55°
2026-05-05 09:24 24.41926 117.95285 3012 ft 175 kts 52°
2026-05-05 09:25 24.42683 117.96352 3013 ft 174 kts 52°
2026-05-05 09:25 24.43435 117.97399 3010 ft 174 kts 52°
2026-05-05 09:25 24.44186 117.98445 2931 ft 173 kts 52°
2026-05-05 09:25 24.44921 117.99471 2728 ft 166 kts 52°
2026-05-05 09:26 24.45612 118.00437 2504 ft 158 kts 52°
2026-05-05 09:26 24.46282 118.01375 2322 ft 155 kts 52°
2026-05-05 09:26 24.46952 118.02313 2114 ft 154 kts 52°
2026-05-05 09:26 24.47602 118.03224 1915 ft 153 kts 52°
2026-05-05 09:27 24.48263 118.04150 1713 ft 151 kts 51°
2026-05-05 09:27 24.48915 118.05062 1507 ft 150 kts 51°
2026-05-05 09:27 24.49334 118.05647 1372 ft 141 kts 52°
2026-05-05 09:27 24.50097 118.06713 1114 ft 130 kts 53°
2026-05-05 09:28 24.50655 118.07494 966 ft 131 kts 53°
2026-05-05 09:28 24.51228 118.08295 803 ft 132 kts 54°
2026-05-05 09:28 24.51796 118.09090 637 ft 133 kts 54°
2026-05-05 09:28 24.52371 118.09897 458 ft 132 kts 53°
2026-05-05 09:29 24.52941 118.10693 285 ft 133 kts 52°
2026-05-05 09:29 24.53519 118.11496 85 ft 135 kts 54°
2026-05-05 09:29 24.54054 118.12259 65 ft 107 kts 52°
2026-05-05 09:29 24.54411 118.12756 52 ft 57 kts 52°
2026-05-05 09:30 24.54527 118.13033 48 ft 34 kts 81°
2026-05-05 09:30 24.54561 118.13249 48 ft 26 kts 74°
2026-05-05 09:30 24.54645 118.13384 47 ft 16 kts 65°
2026-05-05 09:30 24.54639 118.13491 44 ft 14 kts 58°
2026-05-05 09:31 24.54697 118.13592 42 ft 16 kts 56°
2026-05-05 09:31 24.54770 118.13691 40 ft 17 kts 52°
2026-05-05 09:31 24.54804 118.13794 38 ft 14 kts 125°
2026-05-05 09:31 24.54729 118.13866 36 ft 13 kts 125°
2026-05-05 09:32 24.54743 118.13937 34 ft 4 kts 51°
2026-05-05 09:32 24.54759 118.13957 33 ft 1 kts 49°
2026-05-05 09:32 24.54761 118.13958 33 ft 0 kts 49°